AAL3120 KPBI-KORD

Flight info

Callsign AAL3120
Flight time 2h 53m
Altitude 36000
Route TBIRD6 KPASA Q118 HEVAN BONNT VEECK5
Aircraft A320/M-SDE3FGHIRWY/LB1

Departure

Time 2026-04-26 11:32
Airport Palm Beach International Airport (KPBI)

Arrival

Time 2026-04-26 14:25
Airport Chicago O'Hare International Airport (KORD)
Time Latitude Longitude Altitude Speed Heading
2026-04-26 11:00 26.68643 -80.09277 27 ft 0 kts 319°
2026-04-26 11:23 26.68637 -80.09272 31 ft 3 kts 317°
2026-04-26 11:23 26.68622 -80.09256 25 ft 3 kts 310°
2026-04-26 11:24 26.68610 -80.09238 26 ft 3 kts 296°
2026-04-26 11:24 26.68604 -80.09218 26 ft 3 kts 261°
2026-04-26 11:24 26.68607 -80.09206 28 ft 0 kts 229°
2026-04-26 11:26 26.68602 -80.09213 25 ft 4 kts 227°
2026-04-26 11:26 26.68570 -80.09251 24 ft 10 kts 227°
2026-04-26 11:26 26.68524 -80.09307 25 ft 10 kts 227°
2026-04-26 11:27 26.68480 -80.09362 25 ft 9 kts 227°
2026-04-26 11:27 26.68420 -80.09382 24 ft 10 kts 177°
2026-04-26 11:27 26.68370 -80.09436 24 ft 11 kts 252°
2026-04-26 11:27 26.68376 -80.09514 26 ft 10 kts 275°
2026-04-26 11:28 26.68378 -80.09596 28 ft 12 kts 271°
2026-04-26 11:28 26.68380 -80.09689 29 ft 12 kts 271°
2026-04-26 11:28 26.68386 -80.09793 29 ft 16 kts 272°
2026-04-26 11:28 26.68392 -80.09926 30 ft 18 kts 271°
2026-04-26 11:29 26.68397 -80.10071 30 ft 19 kts 272°
2026-04-26 11:29 26.68405 -80.10230 28 ft 22 kts 274°
2026-04-26 11:29 26.68412 -80.10398 25 ft 19 kts 273°
2026-04-26 11:29 26.68419 -80.10541 23 ft 19 kts 272°
2026-04-26 11:30 26.68425 -80.10680 21 ft 14 kts 270°
2026-04-26 11:30 26.68410 -80.10724 21 ft 5 kts 229°
2026-04-26 11:30 26.68403 -80.10729 23 ft 1 kts 218°
2026-04-26 11:30 26.68368 -80.10739 21 ft 9 kts 168°
2026-04-26 11:31 26.68318 -80.10698 22 ft 13 kts 98°
2026-04-26 11:31 26.68309 -80.10510 23 ft 50 kts 93°
2026-04-26 11:31 26.68284 -80.09871 29 ft 111 kts 92°
2026-04-26 11:31 26.68238 -80.08822 23 ft 157 kts 93°
2026-04-26 11:32 26.68178 -80.07495 327 ft 170 kts 92°
2026-04-26 11:32 26.68168 -80.06184 940 ft 169 kts 91°
2026-04-26 11:32 26.68367 -80.04895 1544 ft 169 kts 71°
2026-04-26 11:32 26.68903 -80.03688 1910 ft 182 kts 63°
2026-04-26 11:33 26.69530 -80.02362 2131 ft 202 kts 64°
2026-04-26 11:33 26.70204 -80.00908 2332 ft 225 kts 63°
2026-04-26 11:33 26.70970 -79.99264 2588 ft 250 kts 60°
2026-04-26 11:33 26.72196 -79.97813 3088 ft 264 kts 30°
2026-04-26 11:34 26.73943 -79.97165 3842 ft 267 kts
2026-04-26 11:34 26.75788 -79.96900 4720 ft 268 kts
2026-04-26 11:34 26.77637 -79.97240 5408 ft 274 kts 337°
2026-04-26 11:34 26.79235 -79.98407 6134 ft 278 kts 314°
2026-04-26 11:35 26.80285 -80.00178 6972 ft 275 kts 290°
2026-04-26 11:35 26.80906 -80.02212 7739 ft 275 kts 288°
2026-04-26 11:35 26.81509 -80.04242 8555 ft 276 kts 288°
2026-04-26 11:35 26.81913 -80.05597 9022 ft 278 kts 288°
2026-04-26 11:36 26.82748 -80.08367 9992 ft 282 kts 288°
2026-04-26 11:36 26.83395 -80.10465 10308 ft 300 kts 289°
2026-04-26 11:36 26.84103 -80.12755 10434 ft 322 kts 289°
2026-04-26 11:36 26.84857 -80.15190 10703 ft 337 kts 289°
2026-04-26 11:37 26.85631 -80.17691 11271 ft 342 kts 289°
2026-04-26 11:37 26.86413 -80.20220 11889 ft 345 kts 289°
2026-04-26 11:37 26.87200 -80.22770 12514 ft 347 kts 289°
2026-04-26 11:37 26.87991 -80.25340 13151 ft 350 kts 289°
2026-04-26 11:38 26.88787 -80.27932 13775 ft 352 kts 289°
2026-04-26 11:38 26.89585 -80.30537 14325 ft 355 kts 289°
2026-04-26 11:38 26.90535 -80.33092 14827 ft 357 kts 300°
2026-04-26 11:38 26.91977 -80.35356 15346 ft 359 kts 312°
2026-04-26 11:39 26.93863 -80.37207 15854 ft 363 kts 325°
2026-04-26 11:39 26.96101 -80.38530 16366 ft 367 kts 337°
2026-04-26 11:39 26.98494 -80.39553 16903 ft 370 kts 338°
2026-04-26 11:39 27.00905 -80.40588 17442 ft 372 kts 338°
2026-04-26 11:40 27.03336 -80.41636 17993 ft 375 kts 338°
2026-04-26 11:40 27.05779 -80.42692 18501 ft 378 kts 338°
2026-04-26 11:40 27.08241 -80.43756 19001 ft 380 kts 337°
2026-04-26 11:40 27.10685 -80.44810 19507 ft 382 kts 337°
2026-04-26 11:41 27.13178 -80.45885 20027 ft 385 kts 337°
2026-04-26 11:42 27.30886 -80.53973 23243 ft 400 kts 335°
2026-04-26 11:43 27.33458 -80.55183 23638 ft 402 kts 334°
2026-04-26 11:43 27.36023 -80.56452 23985 ft 403 kts 334°
2026-04-26 11:43 27.38584 -80.57764 24332 ft 405 kts 333°
2026-04-26 11:43 27.41125 -80.59084 24665 ft 406 kts 333°
2026-04-26 11:44 27.43703 -80.60419 25009 ft 408 kts 333°
2026-04-26 11:44 27.46293 -80.61755 25334 ft 409 kts 333°
2026-04-26 11:44 27.48894 -80.63087 25660 ft 411 kts 333°
2026-04-26 11:44 27.51456 -80.64530 25983 ft 411 kts 327°
2026-04-26 11:45 27.53777 -80.66420 26306 ft 411 kts 318°
2026-04-26 11:45 27.55927 -80.68555 26630 ft 413 kts 318°
2026-04-26 11:45 27.58083 -80.70698 26954 ft 414 kts 318°
2026-04-26 11:45 27.60250 -80.72850 27273 ft 416 kts 318°
2026-04-26 11:46 27.62398 -80.74981 27591 ft 417 kts 318°
2026-04-26 11:46 27.64582 -80.77142 27922 ft 418 kts 318°
2026-04-26 11:46 27.66760 -80.79300 28385 ft 416 kts 318°
2026-04-26 11:46 27.68928 -80.81448 28842 ft 414 kts 318°
2026-04-26 11:47 27.71084 -80.83588 29305 ft 412 kts 318°
2026-04-26 11:47 27.73231 -80.85718 29768 ft 410 kts 319°
2026-04-26 11:47 27.75374 -80.87845 30197 ft 409 kts 319°
2026-04-26 11:47 27.77512 -80.89973 30574 ft 408 kts 319°
2026-04-26 11:48 27.79614 -80.92065 30923 ft 407 kts 319°
2026-04-26 11:48 27.81740 -80.94179 31265 ft 407 kts 319°
2026-04-26 11:48 27.83958 -80.96153 31602 ft 406 kts 324°
2026-04-26 11:48 27.86262 -80.98007 31949 ft 406 kts 324°
2026-04-26 11:49 27.88562 -80.99858 32299 ft 405 kts 324°
2026-04-26 11:49 27.90863 -81.01709 32656 ft 405 kts 324°
2026-04-26 11:49 27.93154 -81.03557 33008 ft 404 kts 324°
2026-04-26 11:49 27.95442 -81.05406 33362 ft 404 kts 324°
2026-04-26 11:50 27.97729 -81.07256 33717 ft 403 kts 324°
2026-04-26 11:50 28.00016 -81.09110 34034 ft 403 kts 324°
2026-04-26 11:50 28.02296 -81.10953 34309 ft 403 kts 324°
2026-04-26 11:50 28.04544 -81.12770 34587 ft 402 kts 324°
2026-04-26 11:51 28.06817 -81.14611 34869 ft 401 kts 323°
2026-04-26 11:51 28.09067 -81.16472 35148 ft 399 kts 319°
2026-04-26 11:51 28.11026 -81.18689 35415 ft 398 kts 308°
2026-04-26 11:51 28.12528 -81.21319 35673 ft 398 kts 297°
2026-04-26 11:52 28.13520 -81.24254 35897 ft 401 kts 287°
2026-04-26 11:52 28.13874 -81.26318 35952 ft 405 kts 279°
2026-04-26 11:52 28.14341 -81.33889 35977 ft 418 kts 277°
2026-04-26 11:53 28.14727 -81.40458 35981 ft 421 kts 277°
2026-04-26 11:54 28.15313 -81.50409 35978 ft 421 kts 277°
2026-04-26 11:54 28.15700 -81.57041 35975 ft 422 kts 278°
2026-04-26 11:55 28.16085 -81.63680 35977 ft 422 kts 278°
2026-04-26 11:55 28.16464 -81.70324 35983 ft 422 kts 277°
2026-04-26 11:56 28.16842 -81.76929 35980 ft 423 kts 277°
2026-04-26 11:56 28.17246 -81.83576 35983 ft 421 kts 282°
2026-04-26 11:57 28.19037 -81.89776 35980 ft 412 kts 302°
2026-04-26 11:57 28.22677 -81.94689 35986 ft 408 kts 322°
2026-04-26 11:58 28.27300 -81.98411 35981 ft 408 kts 325°
2026-04-26 11:58 28.31958 -82.02098 35991 ft 408 kts 325°
2026-04-26 11:59 28.36630 -82.05786 35993 ft 409 kts 325°
2026-04-26 11:59 28.40508 -82.08857 35992 ft 409 kts 324°
2026-04-26 12:00 28.45922 -82.13164 35992 ft 408 kts 324°
2026-04-26 12:00 28.49827 -82.16269 35981 ft 408 kts 324°
2026-04-26 12:01 28.54444 -82.19942 35991 ft 407 kts 324°
2026-04-26 12:01 28.59086 -82.23642 35998 ft 407 kts 324°
2026-04-26 12:02 28.63721 -82.27341 36001 ft 406 kts 324°
2026-04-26 12:02 28.68349 -82.31038 36008 ft 406 kts 324°
2026-04-26 12:03 28.72968 -82.34731 36014 ft 405 kts 324°
2026-04-26 12:03 28.77580 -82.38419 36014 ft 405 kts 324°
2026-04-26 12:04 28.82188 -82.42114 36014 ft 404 kts 324°
2026-04-26 12:04 28.86767 -82.45788 35993 ft 404 kts 323°
2026-04-26 12:05 28.91360 -82.49486 35992 ft 404 kts 323°
2026-04-26 12:05 28.95966 -82.53185 35989 ft 404 kts 323°
2026-04-26 12:06 29.00533 -82.56854 35986 ft 404 kts 323°
2026-04-26 12:06 29.05130 -82.60563 35985 ft 404 kts 323°
2026-04-26 12:07 29.09718 -82.64265 35985 ft 404 kts 323°
2026-04-26 12:07 29.14311 -82.67971 35979 ft 404 kts 323°
2026-04-26 12:08 29.18865 -82.71658 35982 ft 403 kts 323°
2026-04-26 12:08 29.23447 -82.75367 35980 ft 403 kts 323°
2026-04-26 12:09 29.28030 -82.79074 35978 ft 403 kts 323°
2026-04-26 12:09 29.32607 -82.82789 35981 ft 403 kts 323°
2026-04-26 12:10 29.37181 -82.86514 35985 ft 402 kts 323°
2026-04-26 12:10 29.41727 -82.90203 35982 ft 402 kts 323°
2026-04-26 12:11 29.46286 -82.93915 35986 ft 402 kts 323°
2026-04-26 12:11 29.50864 -82.97615 35989 ft 402 kts 327°
2026-04-26 12:12 29.55958 -83.00319 35992 ft 404 kts 335°
2026-04-26 12:12 29.61159 -83.02783 35991 ft 404 kts 334°
2026-04-26 12:13 29.66315 -83.05241 35991 ft 403 kts 334°
2026-04-26 12:13 29.71504 -83.07723 35991 ft 403 kts 334°
2026-04-26 12:14 29.76682 -83.10202 35991 ft 403 kts 334°
2026-04-26 12:14 29.81859 -83.12678 35989 ft 402 kts 334°
2026-04-26 12:15 29.87036 -83.15150 35985 ft 402 kts 334°
2026-04-26 12:15 29.92167 -83.17607 35983 ft 402 kts 334°
2026-04-26 12:16 29.97326 -83.20083 35985 ft 401 kts 334°
2026-04-26 12:16 30.02475 -83.22565 35982 ft 401 kts 334°
2026-04-26 12:17 30.07617 -83.25041 35984 ft 400 kts 334°
2026-04-26 12:17 30.12754 -83.27512 35985 ft 400 kts 334°
2026-04-26 12:18 30.17884 -83.29982 35984 ft 399 kts 334°
2026-04-26 12:18 30.23011 -83.32452 35983 ft 399 kts 334°
2026-04-26 12:19 30.28138 -83.34930 35981 ft 398 kts 334°
2026-04-26 12:19 30.33250 -83.37403 35982 ft 398 kts 334°
2026-04-26 12:20 30.38326 -83.39852 35979 ft 397 kts 334°
2026-04-26 12:20 30.43437 -83.42328 35979 ft 397 kts 334°
2026-04-26 12:21 30.48531 -83.44804 35975 ft 397 kts 334°
2026-04-26 12:21 30.53629 -83.47276 35978 ft 396 kts 334°
2026-04-26 12:22 30.58718 -83.49748 35981 ft 396 kts 334°
2026-04-26 12:22 30.63765 -83.52206 35982 ft 395 kts 334°
2026-04-26 12:23 30.68837 -83.54680 35983 ft 395 kts 334°
2026-04-26 12:23 30.73906 -83.57145 35984 ft 395 kts 334°
2026-04-26 12:24 30.78974 -83.59622 35985 ft 394 kts 334°
2026-04-26 12:24 30.84033 -83.62093 35982 ft 394 kts 334°
2026-04-26 12:25 30.91586 -83.65792 35980 ft 394 kts 334°
2026-04-26 12:25 30.96645 -83.68267 35985 ft 394 kts 334°
2026-04-26 12:26 31.01692 -83.70744 35987 ft 393 kts 334°
2026-04-26 12:26 31.06744 -83.73229 35987 ft 393 kts 334°
2026-04-26 12:27 31.11760 -83.75695 35989 ft 393 kts 334°
2026-04-26 12:27 31.16811 -83.78180 35988 ft 393 kts 333°
2026-04-26 12:28 31.21850 -83.80655 35990 ft 393 kts 334°
2026-04-26 12:28 31.26888 -83.83136 35988 ft 392 kts 333°
2026-04-26 12:29 31.31915 -83.85624 35986 ft 392 kts 333°
2026-04-26 12:30 31.39453 -83.89354 35987 ft 392 kts 333°
2026-04-26 12:30 31.44477 -83.91854 35988 ft 392 kts 333°
2026-04-26 12:31 31.52009 -83.95527 35990 ft 394 kts 338°
2026-04-26 12:31 31.57410 -83.96869 35990 ft 398 kts 344°
2026-04-26 12:32 31.62832 -83.98062 35992 ft 398 kts 344°
2026-04-26 12:33 31.70994 -83.99885 35982 ft 397 kts 344°
2026-04-26 12:33 31.76428 -84.01102 35981 ft 397 kts 344°
2026-04-26 12:34 31.81860 -84.02310 35982 ft 397 kts 344°
2026-04-26 12:34 31.87261 -84.03507 35984 ft 397 kts 344°
2026-04-26 12:35 31.92704 -84.04719 35973 ft 397 kts 344°
2026-04-26 12:35 31.98138 -84.05935 35971 ft 397 kts 344°
2026-04-26 12:36 32.03566 -84.07159 35974 ft 397 kts 343°
2026-04-26 12:36 32.08962 -84.08371 35972 ft 397 kts 343°
2026-04-26 12:37 32.14378 -84.09584 35970 ft 396 kts 343°
2026-04-26 12:37 32.19790 -84.10798 35970 ft 396 kts 343°
2026-04-26 12:38 32.25198 -84.12012 35971 ft 395 kts 343°
2026-04-26 12:38 32.30605 -84.13232 35971 ft 395 kts 343°
2026-04-26 12:39 32.36008 -84.14453 35970 ft 395 kts 343°
2026-04-26 12:39 32.41405 -84.15673 35973 ft 395 kts 343°
2026-04-26 12:40 32.46802 -84.16895 35977 ft 394 kts 343°
2026-04-26 12:40 32.52185 -84.18113 35974 ft 394 kts 343°
2026-04-26 12:41 32.57564 -84.19323 35974 ft 393 kts 343°
2026-04-26 12:41 32.62908 -84.20532 35981 ft 393 kts 343°
2026-04-26 12:42 32.68283 -84.21751 35996 ft 392 kts 343°
2026-04-26 12:42 32.73618 -84.22968 36008 ft 392 kts 342°
2026-04-26 12:43 32.78968 -84.24183 36017 ft 391 kts 342°
2026-04-26 12:43 32.84314 -84.25398 36020 ft 390 kts 342°
2026-04-26 12:44 32.89639 -84.26621 36023 ft 389 kts 342°
2026-04-26 12:44 32.94967 -84.27846 36023 ft 389 kts 342°
2026-04-26 12:45 33.00289 -84.29061 36018 ft 389 kts 342°
2026-04-26 12:45 33.05598 -84.30279 36025 ft 388 kts 342°
2026-04-26 12:46 33.10869 -84.31488 36017 ft 388 kts 342°
2026-04-26 12:46 33.16187 -84.32709 36003 ft 388 kts 342°
2026-04-26 12:47 33.21493 -84.33929 36024 ft 388 kts 342°
2026-04-26 12:47 33.26770 -84.35142 36029 ft 388 kts 341°
2026-04-26 12:48 33.32073 -84.36366 36038 ft 388 kts 341°
2026-04-26 12:48 33.37377 -84.37587 36039 ft 388 kts 341°
2026-04-26 12:49 33.42680 -84.38816 36040 ft 388 kts 341°
2026-04-26 12:49 33.47083 -84.39841 36039 ft 388 kts 341°
2026-04-26 12:50 33.52391 -84.41068 36004 ft 388 kts 341°
2026-04-26 12:50 33.57707 -84.42297 36006 ft 388 kts 341°
2026-04-26 12:51 33.63015 -84.43533 36005 ft 388 kts 341°
2026-04-26 12:51 33.68304 -84.44721 36006 ft 389 kts 342°
2026-04-26 12:52 33.73649 -84.45878 36007 ft 389 kts 342°
2026-04-26 12:52 33.78972 -84.47029 36005 ft 388 kts 342°
2026-04-26 12:53 33.84292 -84.48204 36007 ft 388 kts 341°
2026-04-26 12:53 33.89613 -84.49387 35995 ft 388 kts 341°
2026-04-26 12:54 33.94899 -84.50557 35996 ft 388 kts 341°
2026-04-26 12:54 34.00225 -84.51732 36024 ft 389 kts 341°
2026-04-26 12:55 34.05616 -84.52626 36023 ft 394 kts 346°
2026-04-26 12:55 34.11086 -84.53191 36021 ft 394 kts 346°
2026-04-26 12:56 34.16521 -84.53752 36023 ft 394 kts 346°
2026-04-26 12:56 34.22001 -84.54330 36034 ft 394 kts 346°
2026-04-26 12:57 34.27479 -84.54905 36036 ft 394 kts 346°
2026-04-26 12:57 34.32949 -84.55475 36036 ft 395 kts 346°
2026-04-26 12:58 34.41159 -84.56342 36028 ft 395 kts 346°
2026-04-26 12:58 34.46602 -84.56916 36022 ft 395 kts 346°
2026-04-26 12:59 34.52095 -84.57499 36015 ft 395 kts 346°
2026-04-26 12:59 34.57584 -84.58082 36012 ft 396 kts 346°
2026-04-26 13:00 34.63074 -84.58662 36022 ft 396 kts 346°
2026-04-26 13:00 34.68536 -84.59232 36025 ft 396 kts 346°
2026-04-26 13:01 34.74038 -84.59808 36027 ft 397 kts 346°
2026-04-26 13:01 34.79543 -84.60397 36019 ft 397 kts 346°
2026-04-26 13:02 34.85053 -84.60987 36016 ft 398 kts 346°
2026-04-26 13:02 34.90581 -84.61577 36024 ft 398 kts 346°
2026-04-26 13:03 34.96110 -84.62168 36016 ft 399 kts 346°
2026-04-26 13:03 35.01620 -84.62749 36019 ft 400 kts 346°
2026-04-26 13:04 35.07167 -84.63337 36018 ft 400 kts 346°
2026-04-26 13:04 35.12723 -84.63930 36019 ft 400 kts 346°
2026-04-26 13:05 35.18287 -84.64536 36019 ft 401 kts 346°
2026-04-26 13:05 35.23825 -84.65133 36022 ft 402 kts 346°
2026-04-26 13:06 35.29407 -84.65728 36056 ft 402 kts 347°
2026-04-26 13:06 35.34991 -84.66329 36061 ft 402 kts 347°
2026-04-26 13:07 35.40577 -84.66933 36065 ft 403 kts 347°
2026-04-26 13:07 35.46125 -84.67533 36064 ft 402 kts 347°
2026-04-26 13:08 35.51703 -84.68137 36057 ft 402 kts 347°
2026-04-26 13:08 35.57295 -84.68741 36051 ft 402 kts 347°
2026-04-26 13:09 35.62871 -84.69344 36039 ft 402 kts 347°
2026-04-26 13:09 35.68419 -84.69950 36045 ft 402 kts 347°
2026-04-26 13:10 35.74008 -84.70561 36054 ft 402 kts 347°
2026-04-26 13:10 35.79595 -84.71168 36066 ft 402 kts 347°
2026-04-26 13:11 35.85136 -84.71773 36070 ft 402 kts 347°
2026-04-26 13:11 35.90724 -84.72384 36068 ft 403 kts 347°
2026-04-26 13:12 35.96318 -84.72992 36064 ft 403 kts 347°
2026-04-26 13:12 36.01875 -84.73599 36068 ft 403 kts 347°
2026-04-26 13:13 36.07469 -84.74215 36051 ft 404 kts 347°
2026-04-26 13:13 36.13077 -84.74834 36046 ft 404 kts 347°
2026-04-26 13:14 36.18695 -84.75445 36040 ft 405 kts 348°
2026-04-26 13:14 36.24312 -84.76062 36050 ft 405 kts 348°
2026-04-26 13:15 36.29907 -84.76678 36058 ft 406 kts 348°
2026-04-26 13:15 36.34587 -84.77193 36065 ft 406 kts 348°
2026-04-26 13:16 36.41161 -84.77930 36069 ft 406 kts 348°
2026-04-26 13:16 36.46878 -84.77913 36068 ft 412 kts 354°
2026-04-26 13:17 36.55451 -84.77652 36064 ft 412 kts 354°
2026-04-26 13:18 36.64082 -84.77404 36076 ft 413 kts 354°
2026-04-26 13:19 36.72678 -84.77161 36094 ft 414 kts 354°
2026-04-26 13:19 36.78443 -84.76992 36102 ft 414 kts 354°
2026-04-26 13:20 36.84216 -84.76819 36099 ft 415 kts 355°
2026-04-26 13:20 36.90005 -84.76655 36101 ft 416 kts 355°
2026-04-26 13:21 36.95767 -84.76487 36097 ft 417 kts 355°
2026-04-26 13:21 37.01579 -84.76308 36081 ft 418 kts 355°
2026-04-26 13:22 37.07399 -84.76128 36083 ft 418 kts 355°
2026-04-26 13:22 37.13201 -84.75961 36082 ft 419 kts 355°
2026-04-26 13:23 37.19037 -84.75798 36080 ft 420 kts 355°
2026-04-26 13:23 37.24882 -84.75630 36076 ft 420 kts 356°
2026-04-26 13:24 37.30739 -84.75460 36084 ft 421 kts 356°
2026-04-26 13:24 37.36613 -84.75272 36099 ft 422 kts 356°
2026-04-26 13:25 37.42485 -84.75076 36116 ft 422 kts 356°
2026-04-26 13:25 37.48367 -84.74881 36128 ft 423 kts 356°
2026-04-26 13:26 37.54209 -84.74696 36130 ft 423 kts 356°
2026-04-26 13:26 37.60101 -84.74511 36132 ft 423 kts 356°
2026-04-26 13:27 37.65984 -84.74307 36130 ft 423 kts 357°
2026-04-26 13:27 37.71870 -84.74110 36121 ft 423 kts 357°
2026-04-26 13:28 37.77767 -84.73927 36113 ft 423 kts 357°
2026-04-26 13:28 37.83652 -84.73749 36104 ft 423 kts 357°
2026-04-26 13:29 37.89536 -84.73576 36108 ft 423 kts 357°
2026-04-26 13:29 37.95389 -84.73397 36113 ft 423 kts 357°
2026-04-26 13:30 38.01276 -84.73205 36117 ft 423 kts 357°
2026-04-26 13:30 38.07178 -84.73019 36117 ft 424 kts 357°
2026-04-26 13:31 38.13077 -84.72838 36113 ft 424 kts 357°
2026-04-26 13:31 38.18971 -84.72652 36120 ft 424 kts 357°
2026-04-26 13:32 38.24831 -84.72463 36119 ft 424 kts 357°
2026-04-26 13:32 38.30732 -84.72278 36115 ft 424 kts 358°
2026-04-26 13:33 38.36633 -84.72100 36111 ft 424 kts 358°
2026-04-26 13:33 38.42550 -84.71915 36114 ft 425 kts 358°
2026-04-26 13:34 38.48387 -84.72488 36096 ft 418 kts 343°
2026-04-26 13:34 38.53872 -84.74899 36104 ft 416 kts 338°
2026-04-26 13:35 38.59286 -84.77411 36105 ft 417 kts 338°
2026-04-26 13:35 38.64744 -84.79936 36116 ft 417 kts 338°
2026-04-26 13:36 38.70205 -84.82463 36112 ft 417 kts 338°
2026-04-26 13:36 38.75657 -84.84993 36117 ft 417 kts 338°
2026-04-26 13:37 38.81106 -84.87528 36122 ft 417 kts 338°
2026-04-26 13:37 38.86550 -84.90067 36134 ft 416 kts 338°
2026-04-26 13:38 38.91965 -84.92599 36126 ft 416 kts 338°
2026-04-26 13:38 38.97411 -84.95149 36134 ft 416 kts 338°
2026-04-26 13:39 39.01942 -84.97271 36135 ft 416 kts 338°
2026-04-26 13:39 39.07385 -84.99826 36132 ft 416 kts 338°
2026-04-26 13:40 39.12831 -85.02389 36134 ft 416 kts 338°
2026-04-26 13:40 39.18271 -85.04954 36138 ft 416 kts 338°
2026-04-26 13:41 39.23722 -85.07516 36140 ft 416 kts 338°
2026-04-26 13:41 39.29160 -85.10072 36150 ft 416 kts 338°
2026-04-26 13:42 39.34597 -85.12649 36149 ft 416 kts 338°
2026-04-26 13:42 39.40035 -85.15231 36149 ft 416 kts 338°
2026-04-26 13:43 39.45438 -85.17801 36155 ft 416 kts 338°
2026-04-26 13:43 39.50879 -85.20391 36141 ft 416 kts 338°
2026-04-26 13:44 39.56323 -85.22979 36144 ft 416 kts 338°
2026-04-26 13:44 39.61754 -85.25563 36139 ft 416 kts 338°
2026-04-26 13:45 39.67179 -85.28152 36146 ft 415 kts 338°
2026-04-26 13:45 39.72573 -85.30724 36152 ft 415 kts 338°
2026-04-26 13:46 39.78001 -85.33319 36159 ft 416 kts 338°
2026-04-26 13:46 39.83426 -85.35931 36163 ft 416 kts 338°
2026-04-26 13:47 39.88859 -85.38556 36161 ft 416 kts 338°
2026-04-26 13:47 39.94295 -85.41170 36160 ft 416 kts 338°
2026-04-26 13:48 39.99689 -85.43764 36153 ft 416 kts 338°
2026-04-26 13:48 40.05123 -85.46393 36149 ft 416 kts 338°
2026-04-26 13:49 40.10564 -85.49028 36154 ft 416 kts 338°
2026-04-26 13:49 40.15961 -85.51643 36158 ft 416 kts 338°
2026-04-26 13:50 40.21394 -85.54281 36158 ft 416 kts 338°
2026-04-26 13:50 40.26831 -85.56927 36159 ft 417 kts 338°
2026-04-26 13:51 40.32276 -85.59579 36158 ft 417 kts 338°
2026-04-26 13:51 40.37719 -85.62235 36180 ft 417 kts 338°
2026-04-26 13:52 40.43124 -85.64877 36184 ft 417 kts 337°
2026-04-26 13:52 40.48569 -85.67547 36187 ft 417 kts 337°
2026-04-26 13:53 40.54108 -85.69902 36184 ft 419 kts 342°
2026-04-26 13:53 40.59754 -85.71870 36184 ft 420 kts 343°
2026-04-26 13:54 40.65373 -85.73809 36181 ft 420 kts 342°
2026-04-26 13:54 40.71008 -85.75854 36177 ft 420 kts 342°
2026-04-26 13:55 40.78464 -85.78631 36168 ft 414 kts 341°
2026-04-26 13:55 40.84532 -85.82152 35392 ft 406 kts 322°
2026-04-26 13:56 40.86684 -85.84632 34224 ft 419 kts 312°
2026-04-26 13:56 40.88467 -85.87746 32931 ft 431 kts 301°
2026-04-26 13:56 40.89804 -85.91328 31827 ft 439 kts 294°
2026-04-26 13:56 40.90997 -85.95049 30959 ft 439 kts 294°
2026-04-26 13:57 40.92207 -85.98760 30268 ft 437 kts 294°
2026-04-26 13:57 40.93410 -86.02427 29649 ft 432 kts 294°
2026-04-26 13:57 40.94584 -86.06000 29093 ft 426 kts 294°
2026-04-26 13:57 40.95752 -86.09568 28530 ft 420 kts 294°
2026-04-26 13:58 40.96900 -86.13103 27989 ft 415 kts 293°
2026-04-26 13:58 40.98029 -86.16603 27446 ft 411 kts 293°
2026-04-26 13:58 40.99143 -86.20064 26912 ft 407 kts 293°
2026-04-26 13:58 41.00250 -86.23496 26381 ft 403 kts 293°
2026-04-26 13:59 41.01348 -86.26906 25866 ft 400 kts 292°
2026-04-26 13:59 41.02429 -86.30275 25360 ft 397 kts 292°
2026-04-26 13:59 41.03503 -86.33629 24862 ft 394 kts 292°
2026-04-26 14:00 41.06683 -86.43546 23422 ft 389 kts 292°
2026-04-26 14:00 41.07735 -86.46830 22957 ft 385 kts 292°
2026-04-26 14:00 41.08439 -86.49034 22662 ft 383 kts 291°
2026-04-26 14:01 41.09803 -86.53330 22067 ft 380 kts 291°
2026-04-26 14:01 41.10827 -86.56550 21620 ft 377 kts 291°
2026-04-26 14:01 41.11841 -86.59743 21180 ft 374 kts 291°
2026-04-26 14:01 41.12927 -86.62866 20707 ft 373 kts 297°
2026-04-26 14:02 41.14193 -86.65861 20242 ft 371 kts 297°
2026-04-26 14:02 41.15450 -86.68842 19749 ft 370 kts 297°
2026-04-26 14:02 41.16698 -86.71816 19261 ft 368 kts 297°
2026-04-26 14:02 41.17940 -86.74788 18767 ft 367 kts 297°
2026-04-26 14:03 41.19179 -86.77757 18248 ft 367 kts 296°
2026-04-26 14:03 41.20414 -86.80717 17727 ft 365 kts 296°
2026-04-26 14:03 41.21639 -86.83653 17228 ft 363 kts 297°
2026-04-26 14:03 41.22850 -86.86555 16596 ft 364 kts 297°
2026-04-26 14:04 41.24072 -86.89490 16095 ft 362 kts 297°
2026-04-26 14:04 41.25289 -86.92419 15592 ft 360 kts 297°
2026-04-26 14:04 41.26500 -86.95330 15098 ft 358 kts 297°
2026-04-26 14:04 41.27707 -86.98228 14611 ft 356 kts 297°
2026-04-26 14:05 41.28903 -87.01105 14114 ft 355 kts 296°
2026-04-26 14:05 41.30095 -87.03980 13588 ft 353 kts 296°
2026-04-26 14:05 41.31260 -87.06798 13101 ft 351 kts 297°
2026-04-26 14:05 41.32428 -87.09630 12619 ft 348 kts 296°
2026-04-26 14:06 41.33588 -87.12447 12139 ft 345 kts 297°
2026-04-26 14:06 41.34740 -87.15243 11669 ft 343 kts 297°
2026-04-26 14:06 41.35918 -87.18000 11200 ft 342 kts 302°
2026-04-26 14:06 41.37426 -87.20433 10840 ft 339 kts 315°
2026-04-26 14:07 41.39181 -87.22510 10771 ft 338 kts 317°
2026-04-26 14:07 41.40939 -87.24596 10661 ft 338 kts 317°
2026-04-26 14:07 41.42686 -87.26692 10529 ft 338 kts 316°
2026-04-26 14:07 41.44417 -87.28780 10393 ft 330 kts 316°
2026-04-26 14:08 41.46086 -87.30801 10272 ft 319 kts 316°
2026-04-26 14:08 41.47700 -87.32753 10145 ft 307 kts 316°
2026-04-26 14:08 41.49257 -87.34629 9820 ft 295 kts 317°
2026-04-26 14:08 41.50826 -87.36366 9681 ft 298 kts 325°
2026-04-26 14:09 41.52552 -87.37907 9570 ft 298 kts 325°
2026-04-26 14:09 41.54279 -87.39445 9434 ft 298 kts 325°
2026-04-26 14:09 41.55999 -87.40981 9309 ft 297 kts 325°
2026-04-26 14:09 41.57721 -87.42525 9181 ft 297 kts 326°
2026-04-26 14:10 41.59438 -87.44065 9051 ft 297 kts 325°
2026-04-26 14:10 41.61153 -87.45605 8920 ft 297 kts 325°
2026-04-26 14:10 41.62867 -87.47146 8790 ft 296 kts 326°
2026-04-26 14:10 41.64554 -87.48663 8669 ft 295 kts 326°
2026-04-26 14:11 41.67750 -87.52087 8417 ft 294 kts 319°
2026-04-26 14:11 41.69306 -87.53860 8291 ft 294 kts 319°
2026-04-26 14:11 41.70863 -87.55631 8162 ft 293 kts 319°
2026-04-26 14:12 41.72419 -87.57402 8043 ft 293 kts 319°
2026-04-26 14:12 41.73974 -87.59171 7914 ft 292 kts 319°
2026-04-26 14:12 41.75533 -87.60922 7793 ft 292 kts 320°
2026-04-26 14:12 41.77095 -87.62670 7667 ft 292 kts 320°
2026-04-26 14:13 41.80189 -87.66126 7429 ft 291 kts 320°
2026-04-26 14:13 41.81742 -87.67860 7308 ft 290 kts 320°
2026-04-26 14:13 41.83216 -87.69702 7180 ft 290 kts 309°
2026-04-26 14:14 41.84380 -87.71907 7060 ft 289 kts 302°
2026-04-26 14:14 41.85483 -87.74167 6948 ft 289 kts 302°
2026-04-26 14:14 41.86583 -87.76413 7008 ft 289 kts 302°
2026-04-26 14:14 41.87637 -87.78710 7019 ft 288 kts 294°
2026-04-26 14:15 41.88285 -87.81243 6976 ft 288 kts 279°
2026-04-26 14:15 41.88452 -87.83912 6641 ft 286 kts 268°
2026-04-26 14:15 41.88446 -87.86572 6337 ft 284 kts 268°
2026-04-26 14:15 41.88444 -87.89212 6045 ft 282 kts 268°
2026-04-26 14:16 41.88446 -87.91830 5766 ft 280 kts 268°
2026-04-26 14:16 41.88446 -87.94439 5489 ft 279 kts 268°
2026-04-26 14:16 41.88444 -87.97035 5209 ft 277 kts 268°
2026-04-26 14:16 41.88441 -87.99619 4867 ft 277 kts 267°
2026-04-26 14:17 41.88385 -88.02164 4543 ft 275 kts 265°
2026-04-26 14:17 41.88295 -88.04724 4225 ft 274 kts 265°
2026-04-26 14:17 41.88196 -88.07261 4010 ft 272 kts 265°
2026-04-26 14:17 41.88100 -88.09754 3994 ft 261 kts 265°
2026-04-26 14:18 41.88011 -88.12124 3999 ft 246 kts 265°
2026-04-26 14:18 41.87930 -88.14351 3999 ft 234 kts 265°
2026-04-26 14:18 41.87852 -88.16528 4001 ft 233 kts 265°
2026-04-26 14:18 41.87783 -88.18695 4003 ft 233 kts 265°
2026-04-26 14:19 41.87851 -88.20860 3996 ft 234 kts 285°
2026-04-26 14:19 41.88679 -88.22722 4009 ft 235 kts 319°
2026-04-26 14:19 41.90113 -88.23713 4006 ft 233 kts 349°
2026-04-26 14:19 41.91699 -88.24059 4005 ft 234 kts 355°
2026-04-26 14:20 41.93314 -88.24297 4001 ft 233 kts 359°
2026-04-26 14:20 41.94881 -88.23940 3995 ft 227 kts 31°
2026-04-26 14:20 41.96038 -88.22572 4002 ft 221 kts 62°
2026-04-26 14:20 41.96482 -88.20653 4004 ft 215 kts 90°
2026-04-26 14:21 41.96495 -88.18640 4003 ft 216 kts 92°
2026-04-26 14:21 41.96497 -88.16620 3996 ft 216 kts 92°
2026-04-26 14:21 41.96503 -88.14607 3821 ft 215 kts 92°
2026-04-26 14:21 41.96511 -88.12613 3559 ft 212 kts 91°
2026-04-26 14:22 41.96518 -88.10659 3294 ft 211 kts 91°
2026-04-26 14:22 41.96525 -88.08695 3011 ft 210 kts 91°
2026-04-26 14:22 41.96532 -88.06749 2763 ft 204 kts 91°
2026-04-26 14:22 41.96539 -88.04928 2484 ft 186 kts 91°
2026-04-26 14:23 41.96544 -88.03282 2230 ft 165 kts 90°
2026-04-26 14:23 41.96548 -88.01839 2039 ft 145 kts 91°
2026-04-26 14:23 41.96552 -88.00524 1836 ft 138 kts 90°
2026-04-26 14:23 41.96555 -87.99257 1643 ft 135 kts 90°
2026-04-26 14:24 41.96558 -87.98001 1446 ft 134 kts 89°
2026-04-26 14:24 41.96561 -87.96749 1257 ft 134 kts 90°
2026-04-26 14:24 41.96564 -87.95497 1073 ft 134 kts 88°
2026-04-26 14:24 41.96567 -87.94246 894 ft 133 kts 88°
2026-04-26 14:25 41.96574 -87.93008 733 ft 132 kts 87°
2026-04-26 14:25 41.96576 -87.91790 670 ft 123 kts 89°
2026-04-26 14:25 41.96582 -87.90855 669 ft 76 kts 89°
2026-04-26 14:25 41.96575 -87.90365 669 ft 40 kts 90°
2026-04-26 14:26 41.96547 -87.90140 669 ft 10 kts 156°
2026-04-26 14:26 41.96477 -87.90144 669 ft 11 kts 182°
2026-04-26 14:26 41.96415 -87.90178 669 ft 9 kts 273°
2026-04-26 14:26 41.96416 -87.90298 669 ft 17 kts 266°
2026-04-26 14:27 41.96430 -87.90473 669 ft 18 kts 324°
2026-04-26 14:27 41.96569 -87.90487 668 ft 22 kts 357°
2026-04-26 14:27 41.96636 -87.90416 669 ft 21 kts 64°
2026-04-26 14:27 41.96720 -87.90233 668 ft 24 kts 61°
2026-04-26 14:28 41.96732 -87.90022 669 ft 23 kts 79°
2026-04-26 14:28 41.96740 -87.89798 669 ft 25 kts 88°
2026-04-26 14:28 41.96740 -87.89558 669 ft 26 kts 90°
2026-04-26 14:28 41.96804 -87.89438 670 ft 16 kts
2026-04-26 14:29 41.96925 -87.89435 670 ft 19 kts 358°
2026-04-26 14:29 41.97065 -87.89436 669 ft 22 kts 360°
2026-04-26 14:29 41.97190 -87.89470 669 ft 15 kts 289°
2026-04-26 14:29 41.97266 -87.89579 669 ft 18 kts 323°
2026-04-26 14:30 41.97276 -87.89718 669 ft 18 kts 242°
2026-04-26 14:30 41.97217 -87.89879 669 ft 20 kts 251°
2026-04-26 14:30 41.97206 -87.90070 669 ft 21 kts 269°
2026-04-26 14:30 41.97245 -87.90159 669 ft 12 kts 358°
2026-04-26 14:31 41.97328 -87.90160 669 ft 13 kts
2026-04-26 14:31 41.97409 -87.90159 669 ft 11 kts
2026-04-26 14:31 41.97446 -87.90118 669 ft 5 kts 88°
2026-04-26 14:31 41.97447 -87.90102 669 ft 1 kts 89°
2026-04-26 14:32 41.97447 -87.90094 669 ft 0 kts 89°